Location: Красноярск
(56.0091°N, 92.8725°E)
Time: 17:07:22
(UTC+07:00)

ISS - Visible Passes

Search period start: 07 July 2022 00:00
Search period end: 17 July 2022 00:00
Orbit: 414 x 420 km, 51.6° (Epoch: 06 July)

Date Brightness Start Highest point End Pass type
(mag) Time Alt. Az. Time Alt. Az. Time Alt. Az.
07 Jul -2.6 02:09:07 14° SSW 02:11:21 27° SSE 02:14:15 10° ESE visible
08 Jul -2.4 01:22:12 19° S 01:23:16 22° SSE 01:25:56 10° ESE visible
08 Jul -3.2 02:56:22 10° WSW 02:59:31 38° S 03:02:41 10° ESE visible
09 Jul -2.1 00:35:10 17° SSE 00:35:13 17° SSE 00:37:29 10° ESE visible
09 Jul -3.1 02:08:16 10° WSW 02:11:22 35° S 02:14:29 10° ESE visible
09 Jul -1.6 23:47:58 12° SE 23:47:58 12° SE 23:48:47 10° ESE visible
10 Jul -3.0 01:20:48 14° SW 01:23:13 31° SSE 01:26:15 10° E visible
10 Jul -3.2 02:56:25 10° WSW 02:59:34 38° S 03:02:44 10° ESE visible
11 Jul -2.7 00:33:08 16° SSW 00:35:05 26° SSE 00:37:57 10° ESE visible
11 Jul -3.3 02:08:13 10° WSW 02:11:23 39° S 02:14:34 10° ESE visible
11 Jul -2.5 23:44:21 10° SSW 23:46:58 21° SSE 23:49:36 10° ESE visible
12 Jul -3.3 01:20:03 10° WSW 01:23:12 38° S 01:26:22 10° ESE visible
12 Jul -3.0 02:56:32 10° WSW 02:59:33 31° SSW 03:02:35 10° SE visible
12 Jul -2.2 22:56:39 10° SSW 22:58:52 17° SSE 23:01:05 10° ESE visible
13 Jul -3.2 00:31:55 10° WSW 00:35:01 35° S 00:38:07 10° ESE visible
13 Jul -3.2 02:08:15 10° WSW 02:11:22 35° S 02:14:30 10° ESE visible
13 Jul -3.0 23:43:50 10° SW 23:46:50 30° SSE 23:49:50 10° E visible
14 Jul -3.3 01:20:01 10° WSW 01:23:10 38° S 01:26:20 10° ESE visible
14 Jul -2.5 02:56:44 10° WSW 02:59:25 22° SSW 03:02:06 10° SSE visible
14 Jul -2.7 22:55:49 10° SW 22:58:39 25° SSE 23:01:29 10° ESE visible
15 Jul -3.3 00:31:47 10° WSW 00:34:57 39° S 00:38:07 10° ESE visible
15 Jul -2.8 02:08:21 10° WSW 02:11:16 27° SSW 02:14:10 10° SE visible
15 Jul -3.3 23:43:34 10° WSW 23:46:43 38° S 23:49:52 10° ESE visible
16 Jul -3.1 01:20:01 10° WSW 01:23:04 32° SSW 01:26:06 10° SE visible
16 Jul -2.0 02:57:21 10° WSW 02:59:08 14° SSW 03:00:55 10° S visible
16 Jul -3.1 22:55:24 10° SW 22:58:29 34° S 23:01:34 10° ESE visible
